Time,TemperatureF,DewpointF,PressureIn,WindDirection,WindDirectionDegrees,WindSpeedMPH,WindSpeedGustMPH,Humidity,HourlyPrecipIn,Conditions,Clouds,dailyrainin,SoftwareType,DateUTC
2013-02-28 00:02:00,33.0,32.0,29.67,NNE,13,4.0,-999.0,95,-99.99,,,-99.99,,2013-02-28 05:02:00,
2013-02-28 00:11:00,33.0,32.0,29.67,NNE,13,4.0,-999.0,95,-99.99,,,-99.99,,2013-02-28 05:11:00,
2013-02-28 00:22:00,33.0,32.0,29.67,NNE,13,4.0,-999.0,95,-99.99,,,-99.99,,2013-02-28 05:22:00,
2013-02-28 00:32:00,33.0,32.0,29.68,NNW,331,5.0,-999.0,95,-99.99,,,-99.99,,2013-02-28 05:32:00,
2013-02-28 00:42:00,33.0,32.0,29.68,NNW,331,5.0,-999.0,95,-99.99,,,-99.99,,2013-02-28 05:42:00,
2013-02-28 00:52:00,33.0,32.0,29.67,NNW,340,5.0,-999.0,95,-99.99,,,-99.99,,2013-02-28 05:52:00,
2013-02-28 01:01:00,33.0,32.0,29.67,NNW,340,5.0,-999.0,96,-99.99,,,-99.99,,2013-02-28 06:01:00,
2013-02-28 01:11:00,33.0,32.0,29.67,NNW,340,5.0,-999.0,96,-99.99,,,-99.99,,2013-02-28 06:11:00,
2013-02-28 01:22:00,33.0,32.0,29.68,North,5,5.0,-999.0,96,-99.99,,,-99.99,,2013-02-28 06:22:00,
2013-02-28 01:32:00,33.0,32.0,29.68,NNW,346,5.0,-999.0,96,-99.99,,,-99.99,,2013-02-28 06:32:00,
2013-02-28 01:42:00,33.0,32.0,29.68,NNW,346,5.0,-999.0,96,-99.99,,,-99.99,,2013-02-28 06:42:00,
2013-02-28 01:52:00,33.0,32.0,29.69,North,10,5.0,-999.0,96,-99.99,,,-99.99,,2013-02-28 06:52:00,
2013-02-28 02:01:00,33.0,32.0,29.69,NNW,344,5.0,-999.0,95,-99.99,,,-99.99,,2013-02-28 07:01:00,
2013-02-28 02:11:00,33.0,32.0,29.69,NNW,344,5.0,-999.0,95,-99.99,,,-99.99,,2013-02-28 07:11:00,
2013-02-28 02:21:00,32.0,31.0,29.69,North,9,6.0,-999.0,95,-99.99,,,-99.99,,2013-02-28 07:21:00,
2013-02-28 02:32:00,32.0,31.0,29.69,North,9,6.0,-999.0,95,-99.99,,,-99.99,,2013-02-28 07:32:00,
2013-02-28 02:42:00,32.0,31.0,29.69,North,9,6.0,-999.0,95,-99.99,,,-99.99,,2013-02-28 07:42:00,
2013-02-28 02:51:00,32.0,31.0,29.69,North,349,5.0,-999.0,95,-99.99,,,-99.99,,2013-02-28 07:51:00,
2013-02-28 03:01:00,32.0,31.0,29.70,NNW,346,4.0,-999.0,95,-99.99,,,-99.99,,2013-02-28 08:01:00,
2013-02-28 03:11:00,32.0,31.0,29.70,NNW,346,4.0,-999.0,95,-99.99,,,-99.99,,2013-02-28 08:11:00,
2013-02-28 03:22:00,32.0,31.0,29.70,North,355,5.0,-999.0,95,-99.99,,,-99.99,,2013-02-28 08:22:00,
2013-02-28 03:32:00,32.0,31.0,29.70,NNW,344,4.0,-999.0,95,-99.99,,,-99.99,,2013-02-28 08:32:00,
2013-02-28 03:42:00,32.0,31.0,29.70,NNW,344,4.0,-999.0,95,-99.99,,,-99.99,,2013-02-28 08:42:00,
2013-02-28 03:52:00,32.0,31.0,29.70,North,355,4.0,-999.0,95,-99.99,,,-99.99,,2013-02-28 08:52:00,
2013-02-28 04:03:00,32.0,31.0,29.71,North,350,6.0,-999.0,95,-99.99,,,-99.99,,2013-02-28 09:03:00,
2013-02-28 04:12:00,32.0,31.0,29.71,North,350,6.0,-999.0,95,-99.99,,,-99.99,,2013-02-28 09:12:00,
2013-02-28 04:22:00,32.0,31.0,29.71,NW,323,3.0,-999.0,95,-99.99,,,-99.99,,2013-02-28 09:22:00,
2013-02-28 04:32:00,32.0,31.0,29.72,NNW,340,4.0,-999.0,95,-99.99,,,-99.99,,2013-02-28 09:32:00,
2013-02-28 04:42:00,32.0,31.0,29.72,NNW,340,4.0,-999.0,95,-99.99,,,-99.99,,2013-02-28 09:42:00,
2013-02-28 04:52:00,32.0,31.0,29.72,NNW,346,3.0,-999.0,95,-99.99,,,-99.99,,2013-02-28 09:52:00,
2013-02-28 05:02:00,32.0,31.0,29.73,NNW,345,4.0,-999.0,95,-99.99,,,-99.99,,2013-02-28 10:02:00,
2013-02-28 05:11:00,32.0,31.0,29.73,NW,317,6.0,-999.0,95,-99.99,,,-99.99,,2013-02-28 10:11:00,
2013-02-28 05:22:00,32.0,31.0,29.73,NW,317,6.0,-999.0,95,-99.99,,,-99.99,,2013-02-28 10:22:00,
2013-02-28 05:32:00,32.0,31.0,29.74,NNW,347,5.0,-999.0,95,-99.99,,,-99.99,,2013-02-28 10:32:00,
2013-02-28 05:42:00,32.0,31.0,29.74,NNW,347,5.0,-999.0,95,-99.99,,,-99.99,,2013-02-28 10:42:00,
2013-02-28 05:52:00,32.0,31.0,29.74,NNW,331,5.0,-999.0,95,-99.99,,,-99.99,,2013-02-28 10:52:00,
2013-02-28 06:02:00,32.0,31.0,29.75,North,355,5.0,-999.0,95,-99.99,,,-99.99,,2013-02-28 11:02:00,
2013-02-28 06:11:00,32.0,31.0,29.75,North,355,5.0,-999.0,95,-99.99,,,-99.99,,2013-02-28 11:11:00,
2013-02-28 06:22:00,32.0,31.0,29.76,NW,321,4.0,-999.0,95,-99.99,,,-99.99,,2013-02-28 11:22:00,
2013-02-28 06:32:00,32.0,31.0,29.76,NNW,348,5.0,-999.0,95,-99.99,,,-99.99,,2013-02-28 11:32:00,
2013-02-28 06:42:00,32.0,31.0,29.76,NNW,348,5.0,-999.0,95,-99.99,,,-99.99,,2013-02-28 11:42:00,
2013-02-28 06:52:00,32.0,31.0,29.77,NNW,344,4.0,-999.0,95,-99.99,,,-99.99,,2013-02-28 11:52:00,
2013-02-28 07:02:00,32.0,31.0,29.77,NW,316,4.0,-999.0,95,-99.99,,,-99.99,,2013-02-28 12:02:00,
2013-02-28 07:11:00,32.0,31.0,29.77,NW,316,4.0,-999.0,95,-99.99,,,-99.99,,2013-02-28 12:11:00,
2013-02-28 07:22:00,32.0,31.0,29.78,NNW,345,5.0,-999.0,95,-99.99,,,-99.99,,2013-02-28 12:22:00,
2013-02-28 07:32:00,32.0,31.0,29.78,NNW,341,6.0,-999.0,95,-99.99,,,-99.99,,2013-02-28 12:32:00,
2013-02-28 07:42:00,32.0,31.0,29.78,NNW,341,6.0,-999.0,95,-99.99,,,-99.99,,2013-02-28 12:42:00,
2013-02-28 07:52:00,32.0,31.0,29.79,North,350,5.0,-999.0,95,-99.99,,,-99.99,,2013-02-28 12:52:00,
2013-02-28 08:02:00,32.0,31.0,29.80,NNW,333,6.0,-999.0,95,-99.99,,,-99.99,,2013-02-28 13:02:00,
2013-02-28 08:11:00,32.0,31.0,29.80,North,360,4.0,-999.0,95,-99.99,,,-99.99,,2013-02-28 13:11:00,
2013-02-28 08:22:00,32.0,31.0,29.80,North,360,4.0,-999.0,95,-99.99,,,-99.99,,2013-02-28 13:22:00,
2013-02-28 08:32:00,32.0,31.0,29.81,North,5,6.0,-999.0,95,-99.99,,,-99.99,,2013-02-28 13:32:00,
2013-02-28 08:42:00,32.0,31.0,29.81,North,5,6.0,-999.0,95,-99.99,,,-99.99,,2013-02-28 13:42:00,
2013-02-28 08:52:00,33.0,32.0,29.82,NW,319,5.0,-999.0,95,-99.99,,,-99.99,,2013-02-28 13:52:00,
2013-02-28 09:01:00,33.0,32.0,29.83,NNW,344,6.0,-999.0,95,-99.99,,,-99.99,,2013-02-28 14:01:00,
2013-02-28 09:11:00,33.0,31.0,29.83,North,355,5.0,-999.0,94,-99.99,,,-99.99,,2013-02-28 14:11:00,
2013-02-28 09:22:00,33.0,31.0,29.83,North,355,5.0,-999.0,94,-99.99,,,-99.99,,2013-02-28 14:22:00,
2013-02-28 09:32:00,34.0,32.0,29.84,NNW,347,4.0,-999.0,94,-99.99,,,-99.99,,2013-02-28 14:32:00,
2013-02-28 09:42:00,34.0,32.0,29.84,North,350,8.0,-999.0,94,-99.99,,,-99.99,,2013-02-28 14:42:00,
2013-02-28 09:52:00,34.0,32.0,29.84,North,350,8.0,-999.0,94,-99.99,,,-99.99,,2013-02-28 14:52:00,
2013-02-28 10:02:00,34.0,32.0,29.85,North,355,7.0,-999.0,93,-99.99,,,-99.99,,2013-02-28 15:02:00,
2013-02-28 10:11:00,34.0,32.0,29.85,North,355,7.0,-999.0,92,-99.99,,,-99.99,,2013-02-28 15:11:00,
2013-02-28 10:22:00,34.0,32.0,29.85,North,355,7.0,-999.0,92,-99.99,,,-99.99,,2013-02-28 15:22:00,
2013-02-28 10:32:00,34.0,32.0,29.86,North,360,9.0,-999.0,91,-99.99,,,-99.99,,2013-02-28 15:32:00,
2013-02-28 10:42:00,34.0,32.0,29.86,North,360,9.0,-999.0,91,-99.99,,,-99.99,,2013-02-28 15:42:00,
2013-02-28 10:52:00,34.0,32.0,29.86,North,360,9.0,-999.0,91,-99.99,,,-99.99,,2013-02-28 15:52:00,
2013-02-28 11:02:00,35.0,32.0,29.86,North,355,9.0,-999.0,90,-99.99,,,-99.99,,2013-02-28 16:02:00,
2013-02-28 11:12:00,35.0,32.0,29.86,NNE,15,9.0,-999.0,89,-99.99,,,-99.99,,2013-02-28 16:12:00,
2013-02-28 11:22:00,35.0,32.0,29.86,NNE,15,9.0,-999.0,89,-99.99,,,-99.99,,2013-02-28 16:22:00,
2013-02-28 11:32:00,36.0,32.0,29.87,NNW,330,9.0,-999.0,86,-99.99,,,-99.99,,2013-02-28 16:32:00,
2013-02-28 11:42:00,36.0,32.0,29.87,NNW,330,9.0,-999.0,86,-99.99,,,-99.99,,2013-02-28 16:42:00,
2013-02-28 11:52:00,36.0,32.0,29.88,NNE,19,8.0,-999.0,84,-99.99,,,-99.99,,2013-02-28 16:52:00,
2013-02-28 12:02:00,36.0,31.0,29.88,NNW,346,9.0,-999.0,82,-99.99,,,-99.99,,2013-02-28 17:02:00,
2013-02-28 12:12:00,36.0,31.0,29.88,NNW,342,8.0,-999.0,82,-99.99,,,-99.99,,2013-02-28 17:12:00,
2013-02-28 12:22:00,36.0,31.0,29.88,NNW,342,8.0,-999.0,82,-99.99,,,-99.99,,2013-02-28 17:22:00,
2013-02-28 12:32:00,36.0,31.0,29.88,NNE,28,8.0,-999.0,82,-99.99,,,-99.99,,2013-02-28 17:32:00,
2013-02-28 12:42:00,36.0,31.0,29.88,NNE,28,8.0,-999.0,82,-99.99,,,-99.99,,2013-02-28 17:42:00,
2013-02-28 12:52:00,36.0,31.0,29.89,NNW,342,9.0,-999.0,81,-99.99,,,-99.99,,2013-02-28 17:52:00,
2013-02-28 13:02:00,37.0,32.0,29.89,NNW,336,7.0,-999.0,81,-99.99,,,-99.99,,2013-02-28 18:02:00,
2013-02-28 13:12:00,36.0,31.0,29.89,NNW,346,7.0,-999.0,82,-99.99,,,-99.99,,2013-02-28 18:12:00,
2013-02-28 13:22:00,36.0,31.0,29.89,NNW,346,7.0,-999.0,82,-99.99,,,-99.99,,2013-02-28 18:22:00,
2013-02-28 13:32:00,36.0,31.0,29.89,North,360,7.0,-999.0,82,-99.99,,,-99.99,,2013-02-28 18:32:00,
2013-02-28 13:42:00,36.0,30.0,29.89,NNW,340,9.0,-999.0,80,-99.99,,,-99.99,,2013-02-28 18:42:00,
2013-02-28 13:52:00,36.0,30.0,29.89,NNW,340,9.0,-999.0,80,-99.99,,,-99.99,,2013-02-28 18:52:00,
2013-02-28 14:02:00,37.0,31.0,29.90,North,360,7.0,-999.0,79,-99.99,,,-99.99,,2013-02-28 19:02:00,
2013-02-28 14:12:00,37.0,31.0,29.90,North,360,7.0,-999.0,79,-99.99,,,-99.99,,2013-02-28 19:12:00,
2013-02-28 14:22:00,36.0,30.0,29.89,North,355,7.0,-999.0,79,-99.99,,,-99.99,,2013-02-28 19:22:00,
2013-02-28 14:32:00,37.0,31.0,29.90,North,5,7.0,-999.0,78,-99.99,,,-99.99,,2013-02-28 19:32:00,
2013-02-28 14:42:00,37.0,31.0,29.90,North,5,7.0,-999.0,78,-99.99,,,-99.99,,2013-02-28 19:42:00,
2013-02-28 14:52:00,36.0,30.0,29.90,NW,321,6.0,-999.0,78,-99.99,,,-99.99,,2013-02-28 19:52:00,
2013-02-28 15:01:00,36.0,29.0,29.90,North,355,8.0,-999.0,77,-99.99,,,-99.99,,2013-02-28 20:01:00,
2013-02-28 15:12:00,36.0,29.0,29.90,North,355,8.0,-999.0,77,-99.99,,,-99.99,,2013-02-28 20:12:00,
2013-02-28 15:22:00,36.0,29.0,29.91,NW,315,8.0,-999.0,77,-99.99,,,-99.99,,2013-02-28 20:22:00,
2013-02-28 15:32:00,36.0,29.0,29.91,NW,315,8.0,-999.0,77,-99.99,,,-99.99,,2013-02-28 20:32:00,
2013-02-28 15:42:00,36.0,29.0,29.91,NW,315,8.0,-999.0,77,-99.99,,,-99.99,,2013-02-28 20:42:00,
2013-02-28 15:52:00,36.0,30.0,29.92,NNW,344,7.0,-999.0,78,-99.99,,,-99.99,,2013-02-28 20:52:00,
2013-02-28 16:02:00,36.0,30.0,29.93,NNW,329,9.0,-999.0,78,-99.99,,,-99.99,,2013-02-28 21:02:00,
2013-02-28 16:11:00,36.0,30.0,29.93,NNW,329,9.0,-999.0,78,-99.99,,,-99.99,,2013-02-28 21:11:00,
2013-02-28 16:22:00,35.0,29.0,29.93,WNW,301,5.0,-999.0,78,-99.99,,,-99.99,,2013-02-28 21:22:00,
2013-02-28 16:32:00,35.0,29.0,29.93,NNW,336,7.0,-999.0,78,-99.99,,,-99.99,,2013-02-28 21:32:00,
2013-02-28 16:42:00,35.0,29.0,29.93,NNW,336,7.0,-999.0,78,-99.99,,,-99.99,,2013-02-28 21:42:00,
2013-02-28 16:52:00,35.0,29.0,29.94,NNE,26,8.0,-999.0,78,-99.99,,,-99.99,,2013-02-28 21:52:00,
2013-02-28 17:01:00,35.0,29.0,29.95,NNW,329,8.0,-999.0,78,-99.99,,,-99.99,,2013-02-28 22:01:00,
2013-02-28 17:11:00,35.0,29.0,29.95,North,355,7.0,-999.0,79,-99.99,,,-99.99,,2013-02-28 22:11:00,
2013-02-28 17:22:00,35.0,29.0,29.95,North,355,7.0,-999.0,79,-99.99,,,-99.99,,2013-02-28 22:22:00,
2013-02-28 17:32:00,34.0,28.0,29.96,NNE,17,6.0,-999.0,79,-99.99,,,-99.99,,2013-02-28 22:32:00,
2013-02-28 17:42:00,34.0,28.0,29.96,NNE,17,6.0,-999.0,79,-99.99,,,-99.99,,2013-02-28 22:42:00,
2013-02-28 17:52:00,34.0,28.0,29.96,North,355,6.0,-999.0,79,-99.99,,,-99.99,,2013-02-28 22:52:00,
2013-02-28 18:01:00,34.0,28.0,29.97,NNW,347,7.0,-999.0,78,-99.99,,,-99.99,,2013-02-28 23:01:00,
2013-02-28 18:11:00,34.0,28.0,29.98,North,355,7.0,-999.0,78,-99.99,,,-99.99,,2013-02-28 23:11:00,
2013-02-28 18:22:00,34.0,28.0,29.98,North,355,7.0,-999.0,78,-99.99,,,-99.99,,2013-02-28 23:22:00,
2013-02-28 18:32:00,34.0,28.0,29.99,NW,309,6.0,-999.0,79,-99.99,,,-99.99,,2013-02-28 23:32:00,
2013-02-28 18:42:00,34.0,28.0,29.99,NW,309,6.0,-999.0,79,-99.99,,,-99.99,,2013-02-28 23:42:00,
2013-02-28 18:53:00,33.0,28.0,29.99,North,351,6.0,-999.0,80,-99.99,,,-99.99,,2013-02-28 23:53:00,
2013-02-28 19:02:00,33.0,28.0,30.00,NNW,336,7.0,-999.0,81,-99.99,,,-99.99,,2013-03-01 00:02:00,
2013-02-28 19:11:00,33.0,28.0,30.00,NNW,336,7.0,-999.0,81,-99.99,,,-99.99,,2013-03-01 00:11:00,
2013-02-28 19:22:00,33.0,28.0,30.00,NNE,25,5.0,-999.0,81,-99.99,,,-99.99,,2013-03-01 00:22:00,
2013-02-28 19:32:00,33.0,28.0,30.01,NNW,342,5.0,-999.0,81,-99.99,,,-99.99,,2013-03-01 00:32:00,
2013-02-28 19:42:00,33.0,28.0,30.01,NNW,342,5.0,-999.0,81,-99.99,,,-99.99,,2013-03-01 00:42:00,
2013-02-28 19:52:00,32.0,27.0,30.02,North,355,3.0,-999.0,81,-99.99,,,-99.99,,2013-03-01 00:52:00,
2013-02-28 20:01:00,32.0,27.0,30.02,North,360,6.0,-999.0,81,-99.99,,,-99.99,,2013-03-01 01:01:00,
2013-02-28 20:11:00,32.0,27.0,30.03,NNW,348,8.0,-999.0,81,-99.99,,,-99.99,,2013-03-01 01:11:00,
2013-02-28 20:22:00,32.0,27.0,30.03,NNW,348,8.0,-999.0,81,-99.99,,,-99.99,,2013-03-01 01:22:00,
2013-02-28 20:32:00,32.0,27.0,30.03,NNE,21,7.0,-999.0,80,-99.99,,,-99.99,,2013-03-01 01:32:00,
2013-02-28 20:42:00,32.0,27.0,30.03,NNE,21,7.0,-999.0,80,-99.99,,,-99.99,,2013-03-01 01:42:00,
2013-02-28 20:52:00,32.0,26.0,30.03,North,350,9.0,-999.0,79,-99.99,,,-99.99,,2013-03-01 01:52:00,
2013-02-28 21:01:00,32.0,26.0,30.04,North,360,7.0,-999.0,79,-99.99,,,-99.99,,2013-03-01 02:01:00,
2013-02-28 21:11:00,31.0,25.0,30.04,NNE,26,6.0,-999.0,78,-99.99,,,-99.99,,2013-03-01 02:11:00,
2013-02-28 21:21:00,31.0,25.0,30.04,NNE,26,6.0,-999.0,78,-99.99,,,-99.99,,2013-03-01 02:21:00,
2013-02-28 21:32:00,31.0,25.0,30.05,North,5,7.0,-999.0,79,-99.99,,,-99.99,,2013-03-01 02:32:00,
2013-02-28 21:42:00,31.0,25.0,30.05,North,5,7.0,-999.0,79,-99.99,,,-99.99,,2013-03-01 02:42:00,
2013-02-28 21:52:00,31.0,25.0,30.05,North,5,7.0,-999.0,79,-99.99,,,-99.99,,2013-03-01 02:52:00,
2013-02-28 22:02:00,31.0,25.0,30.05,North,5,7.0,-999.0,79,-99.99,,,-99.99,,2013-03-01 03:02:00,
2013-02-28 22:11:00,31.0,25.0,30.06,North,355,7.0,-999.0,79,-99.99,,,-99.99,,2013-03-01 03:11:00,
2013-02-28 22:22:00,31.0,25.0,30.06,North,355,7.0,-999.0,79,-99.99,,,-99.99,,2013-03-01 03:22:00,
2013-02-28 22:32:00,31.0,25.0,30.06,North,360,6.0,-999.0,79,-99.99,,,-99.99,,2013-03-01 03:32:00,
2013-02-28 22:42:00,31.0,25.0,30.06,North,360,6.0,-999.0,79,-99.99,,,-99.99,,2013-03-01 03:42:00,
2013-02-28 22:52:00,31.0,26.0,30.06,North,5,6.0,-999.0,80,-99.99,,,-99.99,,2013-03-01 03:52:00,
2013-02-28 23:01:00,31.0,26.0,30.06,North,360,4.0,-999.0,80,-99.99,,,-99.99,,2013-03-01 04:01:00,
2013-02-28 23:12:00,31.0,26.0,30.06,North,360,4.0,-999.0,80,-99.99,,,-99.99,,2013-03-01 04:12:00,
2013-02-28 23:21:00,31.0,26.0,30.06,North,5,6.0,-999.0,80,-99.99,,,-99.99,,2013-03-01 04:21:00,
2013-02-28 23:32:00,30.0,24.0,30.06,NNE,15,6.0,-999.0,79,-99.99,,,-99.99,,2013-03-01 04:32:00,
2013-02-28 23:42:00,30.0,24.0,30.06,NNE,15,6.0,-999.0,79,-99.99,,,-99.99,,2013-03-01 04:42:00,
2013-02-28 23:52:00,30.0,24.0,30.07,North,355,8.0,-999.0,79,-99.99,,,-99.99,,2013-03-01 04:52:00,